This is the latest recevied weather packets stored in our database for station/object K4FDS. If no packets are shown the sender has not sent any weather packets the latest 10 day(s).
| Time | Temp. | Humidity | Pressure | Rain* | Wind** | Luminosity | Snow |
|---|---|---|---|---|---|---|---|
| 1777817963 | 10° C | 46% | 1015 hPa | 0 mm | 0.89 m/s, 343° | - | - |
| 1777816163 | 7.22° C | 50% | 1015.4 hPa | 0 mm | 0.45 m/s, 328° | - | - |
| 1777814363 | 7.22° C | 50% | 1015.4 hPa | 0 mm | 0.45 m/s, 328° | - | - |
| 1777812563 | 4.44° C | 66% | 1014.9 hPa | 0 mm | 0 m/s | - | - |
| 1777810763 | 4.44° C | 66% | 1014.9 hPa | 0 mm | 0 m/s | - | - |
| 1777808963 | 4.44° C | 66% | 1014.9 hPa | 0 mm | 0 m/s | - | - |
| 1777807163 | 4.44° C | 66% | 1014.9 hPa | 0 mm | 0 m/s | - | - |
| 1777805363 | 4.44° C | 66% | 1014.9 hPa | 0 mm | 0 m/s | - | - |
| 1777803563 | 5° C | 59% | 1014 hPa | 0 mm | 0.45 m/s, 265° | - | - |
| 1777801763 | 5° C | 62% | 1013.8 hPa | 0 mm | 0.45 m/s, 264° | - | - |
| 1777799963 | 5.56° C | 58% | 1013.1 hPa | 0 mm | 0 m/s | - | - |
| 1777798163 | 5.56° C | 58% | 1013.1 hPa | 0 mm | 0 m/s | - | - |
| 1777796363 | 4.44° C | 73% | 1012.9 hPa | 0 mm | 0.45 m/s, 247° | - | - |
| 1777794563 | 4.44° C | 73% | 1012.9 hPa | 0 mm | 0.45 m/s, 247° | - | - |
| 1777792763 | 5° C | 72% | 1012.7 hPa | 0 mm | 0 m/s | - | - |
| 1777790963 | 6.11° C | 67% | 1012.4 hPa | 0 mm | 0 m/s | - | - |
| 1777789163 | 6.11° C | 67% | 1012.4 hPa | 0 mm | 0 m/s | - | - |
| 1777787363 | 6.11° C | 67% | 1012.4 hPa | 0 mm | 0 m/s | - | - |
| 1777785563 | 5.56° C | 70% | 1012.5 hPa | 0 mm | 0 m/s | - | - |
| 1777783763 | 6.11° C | 64% | 1012.2 hPa | 0 mm | 0 m/s | - | - |
| 1777781963 | 6.11° C | 64% | 1012.2 hPa | 0 mm | 0 m/s | - | - |
| 1777780163 | 10° C | 50% | 1010.7 hPa | 0 mm | 0.89 m/s, 5° | - | - |
| 1777778363 | 10° C | 50% | 1010.7 hPa | 0 mm | 0.89 m/s, 5° | - | - |
| 1777776563 | 10° C | 50% | 1010.7 hPa | 0 mm | 0.89 m/s, 5° | - | - |
| 1777774763 | 10° C | 50% | 1010.7 hPa | 0 mm | 0.89 m/s, 5° | - | - |
* Rain latest hour (hover to see other rain measurements)
** Current wind speed in m/s (hover to see current wind gust speed)